Showing default

QUBE, 60476

Orbit data source: Space-Track

QUBE, 60476 is a payload satellite owned by ZfT (DE) in SSO that was launched on Fri, 16 Aug 2024 UTC via an FALCON 9 launch vehicle from the Air Force Western Test Range (AFWTR). Payload-class satellites include a variety of spacecraft equipped with specific instruments for various scientific and technological missions. These include communications satellites like Starlink; space stations such as the ISS; scientific satellites like the Hubble; Earth observation satellites from companies like Planet Labs, Umbra, and HawkEye 360; GPS; miniature CubeSats for education and research; and military/defense satellites.

Loading next visibility...
Identifier
60476, 2024-149J
Orbit
SSO
Country
Flag of DEDE / GER
Related business
Manufacturer
ZfT
Mission
Operational Commercial Communications
Bus & Motor
CUBESAT 3U, Unknown motor
Mass
4 kg wet, 4 kg dry
Launch date (UTC)
2024-08-16 (1 year ago)
Launch vehicle
FALCON 9
Launch site
Air Force Western Test Range (AFWTR)
Object type
Payload
Rocket body
Debris
Shape & HBR
Box, 0.1 m
Radar Cross Section
0.035 m², Small (<0.1 m²)

Expand to show TLE details & history
Last TLE update: 1 day ago

TLE from 1 day ago
0 QUBE
1 60476U 24149J   26034.21318268  .00025794  00000-0  63521-3 0  9996
2 60476  97.3876 118.6813 0002095  21.7081 338.4253 15.40570806 81797
Epoch: 2026-02-03T05:06Z
TLE epoch observation values (Epoch: 2026-02-03T05:06:58.983Z)
Latitude
-0.0001°
Longitude
-91.46179°
Altitude
446.213 km
Speed
7.645 km/s
True Right ascension
07h 54m 43s
True Declination
0° 00' 00"
Sunlit
Object was in full shadow at epoch
Visualization orbit readout
Latitude
Unknown
Longitude
Unknown
Altitude
Unknown
Speed
Unknown
Apparent Right ascension
Unknown
Apparent Declination
Unknown
Sunlit
N/A
Visualization observer readout
Local Sidereal Time
09:01:02
Azimuth
Unknown
Elevation
Unknown
Doppler factor
Unknown
Orbital elements
Apogee altitude
442.79 km
Perigee altitude
439.933 km
Semi-major axis
6,819.498 km
Eccentricity
0.00021
Inclination
97.3876°
RAAN
118.6813°
Arg. of periapsis
21.7081°
True anomaly
338.41647°
Mean anomaly
338.4253°
Eccentric anomaly
338.42089°
Mean motion
3.85403 °/min
Orbital period
93.41 mins
BSTAR
0.00063521
Loading maneuver chart data...
Computing Atmospheric mass density...
Loading historical data...
Loading historical data...
Loading historical data...
Loading historical data...
Loading historical data...
Loading historical data...
Loading historical data...

Documentation

Showing up to 5 results
|